Kelso, MO

4:39 AM CST on December 03, 2016 (GMT -0600)
Cape Girardeau Regional

Weather History for KCGI - May, 2013

Change the Weather History Date:

Friday, May 31, 2013

  Actual Average Record
Temperature  
Mean Temperature 74 °F 71 °F  
Max Temperature 81 °F 82 °F 95 °F (1969)
Min Temperature 67 °F 60 °F 44 °F (1984)
Degree Days  
Heating Degree Days 0 1  
Month to date heating degree days 93 69  
Since 1 July heating degree days 4359 4386  
Cooling Degree Days 9 7  
Month to date cooling degree days 146 121  
Year to date cooling degree days 171 152  
Growing Degree Days 23 (Base 50)    
Moisture  
Dew Point 69 °F    
Average Humidity 82    
Maximum Humidity 90    
Minimum Humidity 74    
Precipitation  
Precipitation 1.02 in 0.14 in 1.88 in (1982)
Month to date precipitation 3.35 5.46  
Year to date precipitation 16.17 21.10  
Sea Level Pressure  
Sea Level Pressure 29.90 in    
Wind  
Wind Speed 13 mph (South)    
Max Wind Speed 29 mph    
Max Gust Speed 37 mph    
Visibility 9 miles    
Events Fog , Rain , Thunderstorm    
T = Trace of Precipitation, MM = Missing Value Source: NWS Daily Summary

Daily Weather History Graph

Daily Weather History Graph

Search for Another Location

Airport or City:

Trip Planner

Search our weather history database for the weather conditions in past years. The results will help you decide how hot, cold, wet, or windy it might be!

Date:

Astronomy

May. 31, 2013 Rise Set
Actual Time 5:39 AM CDT 8:12 PM CDT
Civil Twilight 5:09 AM CDT 8:42 PM CDT
Nautical Twilight 4:31 AM CDT 9:20 PM CDT
Astronomical Twilight 3:50 AM CDT 10:02 PM CDT
Moon 12:53 AM CDT (5/31) 12:48 PM CDT (5/31)
Length of Visible Light 15h 33m
Length of Day
14h 32m
Waning Gibbous, 51% of the Moon is Illuminated
May 31
Waning Gibbous
May 31
Last Quarter
Jun 8
New
Jun 16
First Quarter
Jun 23
Full

Hourly Weather History & Observations

Time (CDT) Temp. Heat Index Dew Point Humidity Pressure Visibility Wind Dir Wind Speed Gust Speed Precip Events Conditions
12:53 AM 75.0 °F - 68.0 °F 79% 29.91 in 10.0 mi South 12.7 mph 20.7 mph N/A   Mostly Cloudy
1:50 AM 73.4 °F - 69.8 °F 88% 29.91 in 10.0 mi South 11.5 mph - N/A   Overcast
1:53 AM 75.0 °F - 69.1 °F 82% 29.91 in 10.0 mi South 12.7 mph - N/A   Overcast
2:01 AM 73.4 °F - 69.8 °F 88% 29.92 in 10.0 mi South 9.2 mph - N/A   Overcast
2:13 AM 73.4 °F - 69.8 °F 88% 29.92 in 10.0 mi South 9.2 mph - N/A   Overcast
2:24 AM 73.4 °F - 69.8 °F 88% 29.91 in 10.0 mi South 11.5 mph - N/A   Mostly Cloudy
2:41 AM 73.4 °F - 69.8 °F 88% 29.92 in 10.0 mi South 9.2 mph - N/A   Mostly Cloudy
2:53 AM 73.9 °F - 69.1 °F 85% 29.91 in 10.0 mi South 6.9 mph - N/A   Mostly Cloudy
3:45 AM 73.4 °F - 69.8 °F 88% 29.91 in 10.0 mi South 16.1 mph 25.3 mph N/A Thunderstorm Mostly Cloudy
3:53 AM 73.9 °F - 69.1 °F 85% 29.91 in 10.0 mi South 15.0 mph 26.5 mph N/A Thunderstorm Thunderstorm
4:07 AM 73.4 °F - 69.8 °F 88% 29.92 in 6.0 mi SSW 17.3 mph 28.8 mph 0.01 in Rain Rain
4:15 AM 71.6 °F - 69.8 °F 94% 29.95 in 1.8 mi WSW 21.9 mph 29.9 mph 0.12 in Rain Heavy Rain
4:24 AM 68.0 °F - 66.2 °F 94% 29.97 in 0.5 mi WSW 17.3 mph 34.5 mph 0.53 in Fog , Rain Heavy Rain
4:39 AM 66.2 °F - 64.4 °F 94% 29.95 in 1.2 mi SW 13.8 mph 19.6 mph 0.90 in Rain Heavy Rain
4:50 AM 66.2 °F - 64.4 °F 94% 29.95 in 3.0 mi SSW 10.4 mph 18.4 mph 0.95 in Rain Rain
4:53 AM 66.9 °F - 64.9 °F 93% 29.94 in 6.0 mi South 9.2 mph 18.4 mph 0.95 in Rain Light Rain
5:00 AM 68.0 °F - 64.4 °F 88% 29.95 in 10.0 mi South 8.1 mph - 0.00 in Rain , Thunderstorm Light Rain
5:10 AM 68.0 °F - 64.4 °F 88% 29.94 in 10.0 mi South 12.7 mph 20.7 mph 0.00 in Rain Light Rain
5:17 AM 68.0 °F - 66.2 °F 94% 29.92 in 10.0 mi South 13.8 mph 20.7 mph 0.01 in Rain Light Rain
5:35 AM 69.8 °F - 66.2 °F 88% 29.90 in 10.0 mi South 17.3 mph 29.9 mph 0.01 in Rain Light Rain
5:53 AM 69.1 °F - 64.9 °F 87% 29.88 in 10.0 mi South 21.9 mph 32.2 mph 0.01 in Rain Light Rain
6:53 AM 70.0 °F - 66.0 °F 87% 29.91 in 10.0 mi SSE 15.0 mph 26.5 mph 0.05 in Rain Light Rain
7:53 AM 70.0 °F - 64.9 °F 84% 29.91 in 10.0 mi SSE 11.5 mph - 0.01 in   Clear
8:33 AM 69.8 °F - 66.2 °F 88% 29.93 in 10.0 mi WSW 5.8 mph - N/A   Mostly Cloudy
8:53 AM 70.0 °F - 66.9 °F 90% 29.91 in 10.0 mi Calm Calm - N/A   Scattered Clouds
9:53 AM 73.9 °F - 68.0 °F 82% 29.90 in 10.0 mi South 10.4 mph - N/A   Mostly Cloudy
10:53 AM 77.0 °F - 69.1 °F 76% 29.91 in 10.0 mi South 11.5 mph 19.6 mph N/A   Mostly Cloudy
11:53 AM 79.0 °F - 69.1 °F 72% 29.92 in 10.0 mi South 19.6 mph 27.6 mph N/A   Overcast
12:09 PM 78.8 °F - 69.8 °F 74% 29.93 in 10.0 mi South 13.8 mph 25.3 mph N/A   Overcast
12:53 PM 79.0 °F - 70.0 °F 74% 29.91 in 10.0 mi South 15.0 mph - N/A   Overcast
1:26 PM 78.8 °F - 69.8 °F 74% 29.92 in 10.0 mi South 18.4 mph 23.0 mph N/A   Overcast
1:53 PM 78.1 °F - 71.1 °F 79% 29.91 in 8.0 mi South 13.8 mph 25.3 mph 0.00 in   Overcast
2:53 PM 75.9 °F - 71.1 °F 85% 29.91 in 6.0 mi South 10.4 mph - 0.00 in Rain Light Rain
3:53 PM 78.1 °F - 71.1 °F 79% 29.89 in 10.0 mi South 11.5 mph - 0.00 in   Overcast
4:53 PM 80.1 °F 83.8 °F 72.0 °F 76% 29.87 in 10.0 mi SSE 13.8 mph 19.6 mph N/A   Mostly Cloudy
5:53 PM 80.1 °F 83.8 °F 72.0 °F 76% 29.84 in 10.0 mi SSE 12.7 mph 20.7 mph N/A   Mostly Cloudy
6:53 PM 80.1 °F 83.8 °F 72.0 °F 76% 29.83 in 10.0 mi SSE 13.8 mph 19.6 mph N/A   Partly Cloudy
7:53 PM 79.0 °F - 72.0 °F 79% 29.79 in 10.0 mi South 13.8 mph - N/A   Clear
8:53 PM 78.1 °F - 72.0 °F 81% 29.82 in 10.0 mi SSE 11.5 mph - N/A   Partly Cloudy
9:53 PM 78.1 °F - 71.1 °F 79% 29.85 in 10.0 mi South 15.0 mph - N/A   Mostly Cloudy
10:53 PM 78.1 °F - 72.0 °F 81% 29.84 in 10.0 mi South 13.8 mph 21.9 mph N/A   Clear
11:53 PM 78.1 °F - 72.0 °F 81% 29.86 in 10.0 mi South 13.8 mph 18.4 mph N/A   Mostly Cloudy